K5TWC Weather Reports


time (UTC)temp
C
wind
direction
speed
KPH
gust
KPH
rain 1hr
cm
rain 24hr
cm
rain mn
cm
humidity
%
barometer
mb
20260904091005 25 197 0.0 4.8 0.00 0.10 0.00 85 1014.0
20260904090503 25 196 0.0 4.8 0.00 0.10 0.00 85 1013.9
20260904090006 25 186 0.0 4.8 0.00 0.10 0.00 84 1013.9
20260904085504 26 186 0.0 11.3 0.00 0.10 0.00 84 1013.9
20260904085007 26 179 0.0 11.3 0.00 0.10 0.00 84 1013.9
20260904084508 26 197 0.0 12.9 0.00 0.10 0.00 84 1013.9
20260904084003 26 144 3.2 12.9 0.00 0.10 0.00 85 1013.8
20260904083505 26 188 0.0 8.0 0.00 0.10 0.00 85 1013.8
20260904083019 26 161 0.0 8.0 0.00 0.10 0.00 84 1013.8
20260904082507 25 200 0.0 6.4 0.00 0.10 0.00 84 1013.9
20260904082007 25 200 0.0 6.4 0.00 0.10 0.00 84 1013.8
20260904081522 25 200 0.0 4.8 0.00 0.10 0.00 83 1013.8
20260904081010 25 193 0.0 4.8 0.00 0.10 0.00 83 1013.8
20260904080511 25 191 0.0 4.8 0.00 0.10 0.00 83 1013.9
20260904080038 26 191 0.0 1.6 0.00 0.10 0.00 83 1014.0
20260904075503 26 191 0.0 1.6 0.00 0.10 0.00 83 1013.9
20260904075004 26 192 0.0 1.6 0.00 0.10 0.00 83 1013.8
20260904074514 26 191 0.0 3.2 0.00 0.10 0.00 83 1013.8
20260904074003 26 191 0.0 3.2 0.00 0.10 0.00 83 1013.7
20260904073508 26 192 0.0 4.8 0.00 0.10 0.00 82 1013.8
20260904073009 26 192 0.0 6.4 0.00 0.10 0.00 82 1013.7
20260904072507 26 193 0.0 9.7 0.00 0.10 0.00 82 1013.8
20260904072006 26 169 1.6 9.7 0.00 0.10 0.00 82 1013.8
20260904071515 26 203 0.0 9.7 0.00 0.10 0.00 82 1013.9
20260904071008 26 210 0.0 4.8 0.00 0.10 0.00 81 1013.9
20260904070511 26 206 0.0 8.0 0.00 0.10 0.00 81 1014.0
20260904070024 26 206 0.0 8.0 0.00 0.10 0.00 81 1014.1
20260904065512 26 218 0.0 9.7 0.00 0.10 0.00 81 1014.1
20260904065012 26 211 0.0 9.7 0.00 0.10 0.00 81 1014.0
20260904064527 26 234 0.0 6.4 0.00 0.10 0.00 80 1014.0
20260904064003 26 187 0.0 6.4 0.00 0.10 0.00 80 1014.0
20260904063504 26 209 0.0 9.7 0.00 0.10 0.00 80 1014.0
20260904063014 26 173 1.6 9.7 0.00 0.10 0.00 80 1014.1
20260904062504 26 191 1.6 6.4 0.00 0.10 0.00 80 1014.1
20260904062003 26 199 0.0 3.2 0.00 0.10 0.00 79 1014.1
20260904061520 26 202 0.0 9.7 0.00 0.10 0.00 79 1014.0
20260904061008 26 200 0.0 9.7 0.00 0.10 0.00 79 1014.0
20260904060509 26 200 0.0 4.8 0.00 0.10 0.00 78 1014.0
20260904060020 26 207 0.0 9.7 0.00 0.10 0.00 78 1014.0
20260904055508 26 214 0.0 9.7 0.00 0.10 0.00 78 1014.0
20260904055011 26 202 0.0 4.8 0.00 0.10 0.00 78 1014.0
20260904054524 26 206 0.0 4.8 0.00 0.10 0.00 77 1014.1
20260904054013 26 205 0.0 8.0 0.00 0.10 0.00 77 1014.0
20260904053513 26 209 0.0 9.7 0.00 0.10 0.00 77 1014.0
20260904053029 26 189 0.0 9.7 0.00 0.10 0.00 77 1013.9
20260904052504 26 185 1.6 9.7 0.00 0.10 0.00 77 1013.9
20260904052004 26 204 0.0 9.7 0.00 0.10 0.00 77 1013.9
20260904051525 27 182 0.0 8.0 0.00 0.10 0.00 77 1013.9
20260904051004 27 198 0.0 9.7 0.00 0.10 0.00 76 1013.9
20260904050505 27 169 0.0 11.3 0.00 0.10 0.00 75 1013.9
20260904050015 27 174 0.0 11.3 0.00 0.10 0.00 75 1013.9
20260904045509 27 211 1.6 11.3 0.00 0.10 0.10 74 1014.0
20260904045011 27 189 3.2 11.3 0.00 0.10 0.10 74 1014.0
20260904044534 27 138 0.0 12.9 0.00 0.10 0.10 73 1014.1
20260904044011 27 221 1.6 12.9 0.00 0.10 0.10 73 1014.0
20260904043515 27 140 3.2 12.9 0.00 0.10 0.10 73 1014.0
20260904043027 27 211 0.0 12.9 0.00 0.10 0.10 73 1014.1
20260904042513 27 211 0.0 12.9 0.00 0.10 0.10 73 1014.2
20260904042019 27 159 0.0 12.9 0.00 0.10 0.10 73 1014.2
20260904041537 27 188 1.6 8.0 0.00 0.10 0.10 73 1014.2
20260904041003 27 163 0.0 4.8 0.00 0.10 0.10 72 1014.2
20260904040505 27 213 0.0 4.8 0.00 0.10 0.10 72 1014.1
20260904040012 27 194 0.0 6.4 0.00 0.10 0.10 72 1014.1
20260904035504 27 166 0.0 9.7 0.00 0.10 0.10 72 1014.1
20260904035008 27 148 1.6 9.7 0.00 0.10 0.10 72 1014.1
20260904034520 27 198 0.0 8.0 0.00 0.10 0.10 72 1014.1
20260904034010 27 190 0.0 12.9 0.00 0.10 0.10 72 1014.0
20260904033512 27 199 1.6 12.9 0.00 0.10 0.10 72 1014.2
20260904033025 27 178 1.6 12.9 0.00 0.10 0.10 72 1014.2
20260904032511 27 186 1.6 14.5 0.00 0.10 0.10 72 1014.3
20260904032014 27 191 3.2 14.5 0.00 0.10 0.10 73 1014.3
20260904031529 27 211 3.2 14.5 0.00 0.10 0.10 72 1014.2
20260904031017 27 179 4.8 16.1 0.00 0.10 0.10 72 1014.1
20260904030516 28 153 6.4 16.1 0.00 0.10 0.10 73 1014.1
20260904030008 28 175 4.8 12.9 0.00 0.10 0.10 73 1014.0
20260904025504 28 190 3.2 11.3 0.00 0.10 0.10 74 1013.9
20260904025004 28 194 1.6 11.3 0.00 0.10 0.10 74 1013.9
20260904024516 28 177 1.6 11.3 0.00 0.10 0.10 74 1013.9
20260904024008 28 207 3.2 9.7 0.00 0.10 0.10 73 1013.8
20260904023510 28 177 0.0 11.3 0.00 0.10 0.10 73 1013.7
20260904023019 28 196 3.2 14.5 0.00 0.10 0.10 73 1013.6
20260904022511 28 192 1.6 17.7 0.00 0.10 0.10 72 1013.4
20260904022012 28 186 3.2 17.7 0.00 0.10 0.10 72 1013.2
20260904021524 28 175 3.2 16.1 0.00 0.10 0.10 72 1013.2
20260904021012 28 165 3.2 19.3 0.00 0.10 0.10 72 1013.1
20260904020514 28 191 6.4 19.3 0.00 0.10 0.10 72 1013.0
20260904020040 28 193 3.2 14.5 0.00 0.10 0.10 72 1012.9
20260904015514 28 178 3.2 14.5 0.00 0.10 0.10 72 1012.9
20260904015018 28 188 4.8 12.9 0.00 0.10 0.10 72 1012.8
20260904014510 29 216 4.8 12.9 0.00 0.10 0.10 72 1012.8
20260904014006 29 184 1.6 14.5 0.00 0.10 0.10 73 1012.7
20260904013505 29 190 1.6 14.5 0.00 0.10 0.10 73 1012.7
20260904013018 29 196 4.8 19.3 0.00 0.10 0.10 73 1012.6
20260904012514 29 169 3.2 19.3 0.00 0.10 0.10 73 1012.6
20260904012010 29 170 3.2 14.5 0.00 0.10 0.10 73 1012.5
20260904011528 29 142 1.6 9.7 0.00 0.10 0.10 73 1012.4
20260904011010 30 193 1.6 14.5 0.00 0.10 0.10 72 1012.3
20260904010513 30 159 0.0 20.9 0.00 0.10 0.10 72 1012.4
20260904010030 30 124 6.4 20.9 0.00 0.10 0.10 71 1012.3
20260904005515 30 224 4.8 17.7 0.00 0.10 0.10 71 1012.4
20260904005012 30 190 1.6 24.1 0.00 0.10 0.10 71 1012.5
20260904004530 30 157 8.0 24.1 0.00 0.10 0.10 70 1012.4
20260904004014 30 183 6.4 17.7 0.00 0.10 0.10 70 1012.5
20260904003516 30 160 6.4 19.3 0.00 0.10 0.10 69 1012.4
20260904003013 30 148 4.8 19.3 0.00 0.10 0.10 68 1012.4
20260904002506 31 109 4.8 14.5 0.00 0.10 0.10 68 1012.3
20260904002006 31 123 1.6 19.3 0.00 0.10 0.10 67 1012.3
20260904001519 31 143 6.4 22.5 0.00 0.10 0.10 66 1012.3
20260904001008 31 153 6.4 22.5 0.00 0.10 0.10 65 1012.3
20260904000511 31 170 6.4 19.3 0.00 0.10 0.10 64 1012.3
20260904000028 31 178 4.8 20.9 0.00 0.10 0.10 63 1012.3
20260903235509 31 130 6.4 20.9 0.00 0.10 0.10 62 1012.3
20260903235018 31 126 6.4 16.1 0.00 0.10 0.10 62 1012.2
20260903234528 31 152 4.8 24.1 0.00 0.10 0.10 63 1012.3
20260903234015 31 138 6.4 24.1 0.00 0.10 0.10 63 1012.3
20260903233514 31 155 8.0 19.3 0.00 0.10 0.10 63 1012.2
20260903233034 32 144 6.4 19.3 0.00 0.10 0.10 64 1012.2
20260903232505 32 96 0.0 20.9 0.00 0.10 0.10 65 1012.1
20260903232007 32 151 8.0 24.1 0.00 0.10 0.10 64 1012.0
20260903231516 32 142 8.0 24.1 0.00 0.10 0.10 63 1012.1
20260903231006 32 159 4.8 16.1 0.00 0.10 0.10 63 1012.1
20260903230511 32 169 8.0 20.9 0.00 0.10 0.10 63 1012.0
20260903230033 32 173 8.0 20.9 0.00 0.10 0.10 63 1012.1
20260903225512 32 169 3.2 17.7 0.00 0.10 0.10 63 1012.1
20260903225011 32 149 9.7 17.7 0.00 0.10 0.10 62 1012.0
20260903224527 32 165 6.4 17.7 0.00 0.10 0.10 62 1012.0
20260903224012 32 146 8.0 20.9 0.00 0.10 0.10 62 1012.0
20260903223516 32 136 8.0 20.9 0.00 0.10 0.10 62 1012.0
20260903223013 32 146 8.0 19.3 0.00 0.10 0.10 62 1011.9
20260903222503 32 179 1.6 17.7 0.00 0.10 0.10 62 1012.0
20260903222004 32 148 3.2 17.7 0.00 0.10 0.10 62 1011.9
20260903221510 32 162 6.4 20.9 0.00 0.10 0.10 62 1012.0
20260903221004 32 150 6.4 20.9 0.00 0.10 0.10 61 1012.0
20260903220506 32 199 6.4 19.3 0.00 0.10 0.10 61 1012.0
20260903220030 33 174 8.0 19.3 0.00 0.10 0.10 61 1012.1
20260903215508 33 158 4.8 17.7 0.00 0.10 0.10 61 1012.2
20260903215012 32 161 1.6 17.7 0.00 0.10 0.10 63 1012.2
20260903214527 33 135 8.0 17.7 0.00 0.10 0.10 63 1012.2
20260903214012 33 126 3.2 17.7 0.00 0.10 0.10 62 1012.3
20260903213512 33 145 4.8 17.7 0.00 0.10 0.10 61 1012.4
20260903213030 32 157 4.8 19.3 0.00 0.10 0.10 61 1012.4
20260903212515 32 173 6.4 24.1 0.00 0.10 0.10 61 1012.4
20260903212019 33 132 9.7 24.1 0.00 0.10 0.10 61 1012.4
20260903211510 33 111 8.0 20.9 0.00 0.10 0.10 60 1012.5
20260903211006 33 153 6.4 19.3 0.00 0.10 0.10 60 1012.5
20260903210507 33 186 4.8 19.3 0.00 0.10 0.10 61 1012.5
20260903210017 33 147 4.8 17.7 0.00 0.10 0.10 62 1012.6
20260903205507 32 232 4.8 20.9 0.00 0.10 0.10 61 1012.7
20260903205010 32 195 4.8 20.9 0.00 0.10 0.10 63 1012.7
20260903204519 32 140 4.8 20.9 0.00 0.10 0.10 63 1012.8
20260903204011 32 198 6.4 22.5 0.00 0.10 0.10 63 1012.9
20260903203515 32 139 9.7 22.5 0.00 0.10 0.10 63 1012.9
20260903203026 32 153 6.4 20.9 0.00 0.10 0.10 63 1013.0
20260903202512 32 170 8.0 20.9 0.00 0.10 0.10 62 1013.2
20260903202014 32 185 6.4 20.9 0.00 0.10 0.10 63 1013.2
20260903201531 32 175 1.6 19.3 0.00 0.10 0.10 64 1013.2
20260903201015 32 200 4.8 19.3 0.00 0.10 0.10 63 1013.3
20260903200516 32 173 8.0 24.1 0.00 0.10 0.10 64 1013.4
20260903200033 32 134 9.7 24.1 0.00 0.10 0.10 64 1013.4
20260903195505 32 127 9.7 19.3 0.00 0.10 0.10 64 1013.3
20260903195006 32 153 4.8 20.9 0.00 0.10 0.10 66 1013.3
20260903194533 31 179 4.8 20.9 0.00 0.10 0.10 66 1013.4
20260903194009 31 120 4.8 22.5 0.00 0.10 0.10 66 1013.4
20260903193509 31 146 9.7 22.5 0.00 0.10 0.10 66 1013.4
20260903193026 31 161 6.4 22.5 0.00 0.10 0.10 66 1013.4
20260903192515 31 146 8.0 25.7 0.00 0.10 0.10 67 1013.5
20260903192011 31 213 11.3 25.7 0.00 0.10 0.10 67 1013.6
20260903191530 31 225 8.0 24.1 0.00 0.10 0.10 68 1013.7
20260903191012 31 151 12.9 25.7 0.00 0.10 0.10 69 1013.8
20260903190516 30 95 6.4 25.7 0.00 0.10 0.10 70 1013.9
20260903190031 30 150 8.0 22.5 0.00 0.10 0.10 70 1014.0
20260903185515 30 186 3.2 24.1 0.00 0.10 0.10 71 1014.1
20260903185015 30 164 4.8 24.1 0.00 0.10 0.10 72 1014.2
20260903184514 30 147 6.4 19.3 0.00 0.10 0.10 72 1014.3
20260903184006 30 169 6.4 19.3 0.00 0.10 0.10 72 1014.4
20260903183507 30 160 8.0 19.3 0.00 0.10 0.10 73 1014.4
20260903183031 29 164 8.0 16.1 0.00 0.10 0.10 75 1014.4
20260903182512 29 155 6.4 19.3 0.00 0.10 0.10 75 1014.4
20260903182009 28 165 8.0 22.5 0.00 0.10 0.10 76 1014.5
20260903181528 28 178 9.7 25.7 0.00 0.10 0.10 76 1014.5
20260903181009 28 147 8.0 27.4 0.00 0.10 0.10 76 1014.6
20260903180514 28 143 8.0 27.4 0.00 0.10 0.10 76 1014.7
20260903180035 28 200 9.7 22.5 0.00 0.10 0.10 76 1014.7
20260903175515 28 165 6.4 22.5 0.00 0.10 0.10 77 1014.7
20260903175015 28 147 8.0 22.5 0.00 0.10 0.10 78 1014.8
20260903174531 28 175 8.0 22.5 0.00 0.10 0.10 79 1014.8
20260903174016 27 172 4.8 17.7 0.00 0.10 0.10 81 1014.8
20260903173514 27 177 6.4 19.3 0.00 0.10 0.10 81 1014.9
20260903173016 27 169 9.7 24.1 0.00 0.10 0.10 82 1014.9
20260903172508 27 136 12.9 24.1 0.00 0.10 0.10 83 1015.0
20260903172008 27 144 4.8 20.9 0.00 0.10 0.10 83 1014.9
20260903171527 27 138 4.8 19.3 0.00 0.10 0.10 84 1015.0
20260903171010 27 202 4.8 17.7 0.00 0.10 0.10 84 1015.1
20260903170513 27 166 8.0 17.7 0.00 0.10 0.10 85 1015.1
20260903170026 27 187 8.0 25.7 0.00 0.10 0.10 85 1015.1
20260903165514 27 114 4.8 25.7 0.00 0.10 0.10 85 1015.1
20260903165015 26 142 8.0 17.7 0.00 0.10 0.10 86 1015.0
20260903164530 26 96 3.2 17.7 0.00 0.10 0.10 86 1015.0
20260903164016 26 145 6.4 19.3 0.00 0.10 0.10 86 1015.0
20260903163514 26 162 6.4 19.3 0.00 0.10 0.10 87 1015.0
20260903163031 26 129 6.4 17.7 0.00 0.10 0.10 87 1015.0
20260903162514 26 135 8.0 16.1 0.00 0.10 0.10 87 1014.9
20260903162016 26 149 4.8 17.7 0.00 0.10 0.10 88 1014.9
20260903161524 26 148 3.2 17.7 0.00 0.10 0.10 88 1014.8
20260903161010 26 132 6.4 17.7 0.00 0.10 0.10 88 1014.8
20260903160510 26 122 6.4 19.3 0.00 0.10 0.10 89 1014.8
20260903160033 26 146 4.8 19.3 0.00 0.10 0.10 89 1014.8
20260903155510 26 157 4.8 17.7 0.00 0.10 0.10 90 1014.8
20260903155021 26 144 4.8 14.5 0.00 0.10 0.10 91 1014.7
20260903154530 26 159 1.6 22.5 0.00 0.10 0.10 91 1014.7
20260903154016 26 146 8.0 22.5 0.00 0.10 0.10 91 1014.7
20260903153515 26 121 6.4 22.5 0.00 0.10 0.10 91 1014.6
20260903153030 26 151 4.8 22.5 0.00 0.10 0.10 91 1014.6
20260903152514 26 109 3.2 19.3 0.00 0.10 0.10 91 1014.5
20260903152021 26 138 3.2 14.5 0.00 0.10 0.10 91 1014.6
20260903151535 26 153 1.6 16.1 0.00 0.10 0.10 91 1014.6
20260903151015 26 163 6.4 16.1 0.00 0.10 0.10 91 1014.6
20260903150514 26 168 0.0 17.7 0.00 0.10 0.10 91 1014.6
20260903150021 26 165 8.0 17.7 0.00 0.10 0.10 91 1014.6
20260903145508 26 166 6.4 17.7 0.00 0.10 0.10 91 1014.6
20260903145010 26 166 1.6 16.1 0.00 0.10 0.10 92 1014.6
20260903144527 26 200 4.8 16.1 0.00 0.10 0.10 92 1014.6
20260903144014 26 156 3.2 12.9 0.00 0.10 0.10 93 1014.6
20260903143513 26 166 1.6 12.9 0.00 0.10 0.10 93 1014.7
20260903143036 26 148 1.6 12.9 0.00 0.10 0.10 93 1014.7
20260903142516 26 152 1.6 14.5 0.00 0.10 0.10 93 1014.6
20260903142021 25 147 1.6 14.5 0.00 0.10 0.10 93 1014.7
20260903141528 25 150 6.4 14.5 0.00 0.10 0.10 93 1014.8
20260903140506 25 166 1.6 14.5 0.00 0.10 0.10 94 1014.9
20260903140018 25 167 4.8 14.5 0.00 0.10 0.10 94 1014.9
20260903135508 25 172 3.2 22.5 0.00 0.10 0.10 94 1014.9
20260903135010 25 185 4.8 22.5 0.00 0.10 0.10 94 1014.8
20260903134527 25 163 0.0 12.9 0.00 0.10 0.10 94 1014.7
20260903134010 25 165 4.8 14.5 0.00 0.10 0.10 94 1014.6
20260903133510 25 155 4.8 19.3 0.00 0.10 0.10 94 1014.7
20260903133004 25 161 4.8 19.3 0.00 0.10 0.10 94 1014.7
20260903132504 25 157 4.8 16.1 0.00 0.10 0.10 94 1014.6
20260903132003 25 155 3.2 14.5 0.03 0.10 0.10 94 1014.6
20260903131515 25 178 1.6 16.1 0.03 0.10 0.10 94 1014.6
20260903131004 25 193 4.8 16.1 0.03 0.10 0.10 94 1014.6
20260903130503 25 143 4.8 16.1 0.05 0.10 0.10 94 1014.5
20260903130013 25 178 1.6 11.3 0.08 0.10 0.10 94 1014.5
20260903125504 25 180 1.6 9.7 0.10 0.10 0.10 94 1014.4
20260903125006 25 209 0.0 11.3 0.10 0.10 0.10 94 1014.3
20260903124533 25 182 3.2 11.3 0.10 0.10 0.10 94 1014.2
20260903124008 25 194 0.0 16.1 0.10 0.10 0.10 94 1014.2
20260903123511 25 202 6.4 16.1 0.10 0.10 0.10 93 1014.2
20260903123024 25 133 3.2 12.9 0.10 0.10 0.10 93 1014.2
20260903122512 25 160 1.6 14.5 0.10 0.10 0.10 93 1014.1
20260903122012 25 165 1.6 17.7 0.08 0.08 0.08 93 1014.0
20260903121505 25 160 8.0 17.7 0.08 0.08 0.08 92 1014.0
20260903121003 25 149 3.2 14.5 0.08 0.08 0.08 92 1014.2
20260903120505 25 149 3.2 17.7 0.05 0.05 0.05 92 1014.2
20260903120010 25 156 6.4 17.7 0.03 0.03 0.03 92 1014.1
20260903115504 25 163 4.8 16.1 0.00 0.00 0.00 92 1014.1
20260903115004 25 146 6.4 16.1 0.00 0.00 0.00 92 1014.1
20260903114519 25 134 1.6 17.7 0.00 0.00 0.00 92 1014.0
20260903114006 25 167 3.2 17.7 0.00 0.00 0.00 92 1014.0
20260903113510 25 135 3.2 14.5 0.00 0.00 0.00 92 1013.8
20260903113023 25 148 0.0 8.0 0.00 0.00 0.00 92 1013.8
20260903112512 25 145 0.0 8.0 0.00 0.00 0.00 92 1013.9
20260903112012 25 182 0.0 4.8 0.00 0.00 0.00 92 1013.9
20260903111525 25 183 0.0 4.8 0.00 0.00 0.00 92 1014.0
20260903111013 25 182 0.0 11.3 0.00 0.00 0.00 92 1013.8
20260903110517 25 168 1.6 11.3 0.00 0.00 0.00 92 1013.8
20260903110008 25 196 0.0 11.3 0.00 0.00 0.00 92 1013.9
20260903105504 25 142 0.0 11.3 0.00 0.00 0.00 92 1014.0
20260903105004 25 163 3.2 11.3 0.00 0.00 0.00 92 1013.8
20260903104511 25 157 0.0 20.9 0.00 0.00 0.00 92 1013.7
20260903104004 25 136 3.2 20.9 0.00 0.00 0.00 92 1013.7
20260903103508 25 146 3.2 17.7 0.00 0.00 0.00 92 1013.6
20260903103016 25 146 4.8 17.7 0.00 0.00 0.00 92 1013.6
20260903102509 25 159 1.6 12.9 0.00 0.00 0.00 92 1013.6
20260903102009 24 168 1.6 12.9 0.00 0.00 0.00 92 1013.6
20260903101530 24 157 0.0 11.3 0.00 0.00 0.00 92 1013.7
20260903101011 24 192 0.0 9.7 0.00 0.00 0.00 92 1013.6
20260903100512 24 157 1.6 9.7 0.00 0.00 0.00 92 1013.6
20260903100032 24 148 0.0 9.7 0.00 0.00 0.00 93 1013.6
20260903095514 24 173 0.0 8.0 0.00 0.00 0.00 93 1013.6
20260903095021 24 178 0.0 8.0 0.00 0.00 0.00 93 1013.7
20260903094510 24 169 0.0 6.4 0.00 0.00 0.00 93 1013.7
20260903094006 24 165 0.0 8.0 0.00 0.00 0.00 93 1013.7
20260903093504 24 165 0.0 11.3 0.00 0.00 0.00 93 1013.7
20260903093013 24 164 1.6 12.9 0.00 0.00 0.00 92 1013.6
20260903092507 24 162 0.0 12.9 0.00 0.00 0.00 92 1013.7
20260903092009 24 137 0.0 12.9 0.00 0.00 0.00 92 1013.8
20260903091521 24 182 0.0 9.7 0.00 0.00 0.00 92 1013.8